Location: Lake Lucerne
(45.5315°N, 88.8489°W)
Time: 18:50:25
(UTC-06:00)

ISS - Visible Passes

Search period start: 11 December 2017 00:00
Search period end: 21 December 2017 00:00
Orbit: 403 x 407 km, 51.6° (Epoch: 12 December)

Date Brightness Start Highest point End Pass type
(mag) Time Alt. Az. Time Alt. Az. Time Alt. Az.
11 Dec -3.2 17:21:44 10° NW 17:24:52 39° NNE 17:26:30 22° ENE visible
11 Dec -0.9 18:58:14 10° WNW 18:59:11 17° WNW 18:59:11 17° WNW visible
12 Dec -3.9 18:05:57 10° WNW 18:09:15 80° SSW 18:09:28 74° SSE visible
13 Dec -3.8 17:13:45 10° WNW 17:17:01 64° NNE 17:19:55 13° ESE visible
13 Dec -1.2 18:50:40 10° W 18:52:38 20° WSW 18:52:38 20° WSW visible
14 Dec -2.4 17:58:06 10° WNW 18:01:11 37° SW 18:03:22 16° SSE visible
15 Dec -3.4 17:05:45 10° WNW 17:09:01 66° SSW 17:12:17 10° SE visible
16 Dec -0.9 17:50:37 10° W 17:52:56 18° SW 17:55:14 10° S visible
17 Dec -1.7 16:57:53 10° WNW 17:00:50 31° SW 17:03:46 10° SSE visible
19 Dec -0.5 16:50:33 10° W 16:52:28 15° SW 16:54:24 10° S visible
